GFSGL_sfc_wetblb_132.txt.gz
Wetbulb
59.57 60.39 60.90 61.41 61.61 62.10 62.30 62.40 62.30 62.23 61.83 61.04 60.56 60.47 60.43 60.31 60.30 59.09 57.67 57.29 56.30 56.46 56.36 55.52 55.01 55.39 54.66 50.78 46.98 45.22 44.25 44.84 43.47 42.46 40.84 42.40 40.51 39.26 39.48 38.26 39.53 39.56 37.99
59.32 59.79 60.29 60.63 60.89 60.75 60.93 61.44 61.71 61.06 61.53 60.31 60.09 59.57 59.51 59.26 59.27 58.20 57.03 56.34 56.07 55.31 55.19 53.71 53.43 49.01 48.84 46.87 44.77 45.03 44.03 43.98 42.77 41.42 42.52 40.40 37.65 38.30 38.44 39.60 38.56 37.09 36.87
57.95 58.46 59.11 59.58 59.62 59.69 60.19 60.58 60.54 59.99 59.88 59.30 58.97 58.30 57.92 58.02 57.56 57.32 57.40 56.75 54.68 54.57 52.32 50.09 49.51 48.03 45.95 44.47 43.04 42.27 41.21 40.71 41.09 39.21 38.94 37.46 38.03 38.89 38.15 37.79 35.91 35.18 37.00
55.82 56.58 56.80 57.32 57.90 58.75 59.08 58.84 58.61 58.39 58.11 57.67 56.85 56.46 56.71 56.51 56.72 55.43 53.47 50.91 48.74 47.60 46.49 46.40 46.19 45.46 44.88 43.30 41.53 40.94 40.57 40.39 37.71 37.00 37.66 37.37 36.93 35.35 34.90 33.68 33.60 35.44 36.68
52.09 54.17 53.02 53.95 54.82 54.83 54.45 53.91 52.65 53.02 53.02 52.70 50.96 49.64 48.68 48.26 46.65 47.61 46.96 46.06 45.03 43.72 42.65 42.59 41.94 39.44 37.83 41.10 40.36 40.02 39.86 38.08 36.91 36.78 35.20 34.12 33.78 32.20 33.16 35.50 34.11 36.33 37.44
46.98 49.75 50.78 47.86 44.90 45.86 44.72 43.27 43.12 42.45 44.26 43.16 42.07 42.51 42.52 41.98 41.40 41.65 43.54 43.68 43.02 42.87 41.92 40.44 39.48 37.49 39.24 38.63 39.05 38.64 39.53 38.08 34.63 35.43 35.15 34.68 34.65 34.85 35.75 35.18 34.36 32.06 32.82
44.70 43.37 43.02 41.41 42.00 43.58 42.82 43.04 42.85 42.90 42.38 41.67 41.64 41.10 39.28 39.45 40.27 40.62 39.35 43.16 42.61 42.12 41.01 39.53 37.66 37.09 36.96 39.34 38.37 38.07 37.69 38.28 38.38 38.27 36.72 36.37 35.29 35.97 36.03 33.45 32.25 33.37 33.43
43.36 42.16 41.18 41.40 39.63 39.04 39.86 40.80 40.49 40.95 41.33 39.89 39.16 38.51 37.39 37.78 39.12 38.80 37.56 40.69 40.12 39.50 38.91 38.63 38.30 37.48 37.50 36.22 37.84 36.84 36.12 36.64 37.75 36.49 36.74 36.78 36.81 36.35 34.33 33.82 33.55 31.88 33.30
40.87 40.84 40.40 40.80 38.46 38.02 37.41 38.55 38.24 37.35 36.54 36.66 36.29 36.07 36.56 37.04 38.34 37.90 37.07 36.35 35.48 35.58 36.14 37.37 37.46 36.43 35.56 36.19 35.90 33.73 33.84 35.40 35.42 36.35 36.89 37.18 37.23 36.97 35.69 34.26 31.54 30.27 30.37
40.13 40.00 40.15 39.43 37.39 37.08 37.72 36.76 36.32 37.10 34.76 34.66 34.24 35.09 33.96 35.85 37.69 37.21 36.66 36.57 34.05 34.28 34.46 34.28 33.30 35.62 34.99 36.37 33.71 33.11 31.72 33.49 32.89 31.73 32.39 33.58 35.26 34.62 34.37 33.21 32.56 29.38 28.60
39.99 38.64 37.75 37.48 36.36 37.56 36.34 35.36 35.01 34.67 33.82 32.88 32.11 32.20 33.13 34.56 36.63 36.28 36.01 36.07 34.99 34.86 34.22 33.30 33.93 35.29 35.88 36.27 35.12 32.64 32.44 33.18 33.26 32.22 32.74 32.86 33.08 33.12 33.26 34.50 33.14 31.44 29.51
38.06 36.60 35.69 34.69 35.28 34.94 33.82 33.80 33.76 33.49 32.46 31.37 31.01 31.14 32.42 33.66 35.11 36.50 35.90 35.42 35.63 33.71 33.19 33.38 34.26 34.75 35.18 35.41 34.94 35.23 35.21 33.48 33.29 32.35 30.86 30.66 31.04 31.79 33.34 33.52 33.17 32.74 32.67
34.90 34.06 33.44 33.56 33.47 33.73 33.69 33.53 33.79 33.37 32.99 31.20 30.78 30.56 29.85 30.95 34.47 36.95 36.42 35.43 34.49 33.67 34.12 33.36 32.97 32.91 32.81 32.91 32.97 33.37 32.36 33.85 32.75 31.56 30.82 30.42 31.30 33.27 33.01 32.97 33.06 33.09 32.78
34.00 32.98 32.55 32.63 32.12 32.77 34.74 34.93 34.47 33.46 32.48 30.89 30.61 29.95 29.15 29.45 30.48 33.40 35.07 35.01 33.09 33.57 33.31 32.62 32.25 32.03 31.61 31.18 31.13 31.62 32.41 32.11 31.12 30.35 30.32 31.87 32.48 31.52 30.80 31.64 30.06 30.17 29.97
33.38 32.32 31.94 32.56 32.02 31.21 32.16 33.04 33.27 33.28 33.44 31.47 31.21 30.82 29.84 29.60 30.42 31.79 32.71 33.04 33.40 32.92 32.24 32.44 32.32 31.76 31.12 31.26 31.79 31.93 32.32 32.43 31.22 29.78 29.27 28.65 28.53 28.44 28.74 29.88 29.36 28.99 26.88
31.83 30.91 31.46 31.11 30.81 30.66 29.90 28.66 29.69 29.83 30.68 31.60 31.69 31.65 30.30 32.79 32.51 32.18 32.39 32.90 32.72 32.47 31.56 31.49 30.54 30.09 29.48 29.05 28.58 28.25 28.56 27.23 26.87 27.30 27.29 27.27 26.76 26.55 26.45 27.42 27.57 27.20 26.81
32.54 31.49 30.48 30.22 30.43 30.06 29.93 29.55 27.84 30.00 31.32 31.13 31.29 32.33 33.13 33.25 33.39 33.31 33.26 33.33 33.22 32.24 30.68 29.19 27.71 27.52 26.62 26.75 26.41 26.25 25.12 24.92 26.07 26.32 26.81 26.98 27.22 26.93 26.88 26.38 26.15 25.96 26.05
32.14 30.51 30.33 30.21 30.41 30.60 30.50 30.14 29.59 28.49 27.77 28.65 31.35 31.83 32.62 32.62 32.56 32.92 31.72 29.62 27.66 28.51 27.47 26.68 26.05 25.53 24.29 23.13 22.14 22.26 21.79 21.60 21.60 20.94 21.55 21.43 21.54 21.83 22.07 22.50 22.94 22.07 22.19
30.11 29.80 30.23 30.06 30.11 30.01 29.62 28.43 27.49 26.48 25.40 21.55 21.73 24.77 28.27 28.92 30.28 32.27 29.67 27.95 24.37 22.10 21.86 21.32 21.27 20.58 19.43 18.56 17.84 17.00 16.11 16.46 15.60 16.02 17.10 16.26 16.73 16.98 17.03 17.51 17.92 17.04 17.24
27.28 25.94 25.79 24.04 23.21 23.86 23.80 23.68 22.98 22.40 21.22 20.74 22.56 21.90 17.20 17.73 20.26 18.93 19.09 20.50 20.16 18.17 17.58 16.59 15.11 14.72 14.76 14.39 13.97 13.23 14.61 13.77 13.05 13.41 12.80 12.90 13.16 13.30 13.63 13.13 14.16 14.22 15.31
23.83 23.39 23.58 23.78 23.41 22.97 22.28 21.86 21.35 20.09 18.69 18.49 18.24 15.86 17.55 19.57 16.68 15.76 14.35 15.75 15.48 14.37 13.64 13.54 11.91 11.65 11.16 10.84 10.69 11.07 10.41 11.52 10.06 9.67 10.30 10.73 9.71 9.98 10.79 11.90 12.33 12.70 12.79
20.00 19.95 20.79 18.95 18.71 19.14 18.80 18.20 18.14 17.34 16.28 15.15 15.10 18.46 16.40 14.16 13.63 12.89 12.29 11.24 10.51 11.11 10.96 11.15 10.41 10.08 9.44 9.16 9.15 9.93 9.00 8.34 8.66 8.16 8.27 6.63 7.94 9.82 9.14 9.62 9.44 10.29 10.64
16.19 15.60 15.53 15.59 14.97 14.32 14.79 15.22 15.39 15.06 14.62 14.25 13.57 11.12 10.81 11.10 11.10 10.71 10.41 9.12 7.96 7.59 6.64 6.49 8.21 6.17 5.61 4.31 5.61 7.27 7.15 7.62 7.72 6.14 5.68 6.38 7.07 8.48 8.63 8.66 8.52 7.49 8.21
14.88 14.25 13.44 13.28 13.68 13.37 12.94 11.90 11.47 11.65 11.22 10.05 9.57 9.71 9.51 8.94 8.84 9.08 8.51 7.69 6.64 6.08 4.86 4.27 4.61 5.35 4.89 3.56 3.73 2.81 2.68 3.04 3.87 3.31 3.01 4.78 5.83 7.16 7.71 7.64 7.48 6.89 6.43
12.50 12.39 12.20 11.95 11.69 10.75 10.45 10.25 9.89 9.60 9.62 9.35 8.65 8.41 8.26 8.10 7.60 7.42 6.90 5.64 4.91 4.94 4.25 3.23 3.62 3.52 2.61 1.38 1.62 1.80 2.29 2.34 2.27 2.98 3.86 3.73 4.61 5.51 6.03 6.32 5.89 5.89 5.68
10.21 10.07 10.22 10.37 10.10 10.55 10.71 10.24 9.72 9.25 8.94 8.63 8.25 7.91 7.93 7.36 7.20 6.93 5.86 4.56 3.63 3.36 3.50 3.53 3.13 2.07 1.93 1.94 1.55 1.45 -0.25 2.73 1.74 0.22 4.94 6.95 6.93 7.49 6.95 5.67 4.77 4.83 5.20

GFSGL_sfc_wetblb_138.txt.gz
Wetbulb
52.68 54.87 55.93 57.10 59.50 60.73 61.38 61.84 61.68 61.43 61.25 61.16 60.42 60.26 60.01 59.71 59.60 59.29 59.65 59.32 58.38 58.18 56.91 56.84 56.75 57.24 56.52 55.71 54.74 52.62 52.83 51.37 50.41 45.43 43.80 43.47 41.86 41.10 39.42 38.75 38.00 38.43 36.62
50.89 53.28 54.89 56.18 57.11 57.85 59.19 60.36 61.11 60.74 60.49 60.73 60.22 59.62 59.60 59.68 59.77 59.64 58.96 58.12 57.48 56.47 56.01 55.37 55.44 54.56 54.47 53.37 50.97 49.29 48.10 46.25 45.65 43.37 41.73 39.78 39.96 38.98 38.15 35.88 36.68 37.53 35.87
49.36 51.87 53.71 55.01 55.82 56.77 58.09 58.78 59.44 59.46 59.57 60.00 60.26 59.97 59.82 59.84 59.36 59.06 58.83 57.14 56.28 55.68 55.09 54.84 54.67 53.42 51.33 48.04 46.61 46.03 44.55 43.08 43.05 40.75 39.27 37.97 37.91 37.40 33.27 33.03 33.27 32.21 35.47
48.17 49.65 51.98 53.50 55.18 56.34 57.15 57.46 57.57 58.72 59.37 60.08 60.11 59.75 58.82 58.46 58.23 57.72 57.07 55.79 55.09 54.70 54.45 54.05 52.77 51.04 49.92 46.63 44.71 44.33 42.16 40.42 39.02 36.10 34.95 35.07 34.89 34.07 29.72 32.51 30.41 27.02 28.66
45.87 48.25 49.73 51.41 53.55 54.49 54.89 56.02 56.92 56.48 57.99 57.32 56.43 56.85 56.67 56.32 56.17 55.16 54.45 54.53 53.36 50.61 47.41 47.52 47.19 44.96 42.51 45.44 44.41 42.49 41.37 37.70 34.94 34.71 33.89 33.77 33.08 31.90 31.95 31.97 27.36 26.66 28.41
43.38 44.64 48.15 48.87 49.19 49.52 49.54 51.23 51.70 51.27 52.17 52.01 51.63 51.16 51.46 50.01 46.32 46.46 49.89 49.96 46.85 45.98 44.30 43.21 42.63 37.03 40.52 41.17 41.83 41.97 42.27 39.82 35.48 34.75 33.51 33.10 33.51 33.46 32.30 28.54 26.35 23.82 24.37
41.77 41.18 41.37 43.15 43.23 43.69 43.68 44.34 44.69 46.28 46.23 46.50 47.01 46.95 47.08 46.97 43.53 43.95 43.29 47.75 46.49 45.66 43.99 41.73 38.72 38.83 37.23 38.00 40.11 40.57 39.46 40.56 40.02 37.71 34.58 34.52 33.83 33.38 31.46 30.17 28.85 30.91 31.00
40.65 39.53 38.10 37.92 38.98 40.07 40.94 41.72 42.32 41.41 42.83 43.81 44.31 44.62 44.41 42.13 41.58 42.07 40.45 44.51 44.19 43.72 42.16 39.61 38.19 36.25 35.49 35.01 35.99 35.10 34.88 36.04 36.45 36.25 36.77 34.45 34.40 31.65 32.10 31.64 31.91 30.38 28.65
40.31 39.63 37.53 36.48 36.21 37.61 38.85 40.95 40.95 39.42 39.16 39.00 37.89 37.66 37.89 37.15 40.57 40.70 40.30 38.77 37.84 37.37 38.01 38.52 37.87 34.26 36.75 38.34 35.07 33.63 32.82 32.18 36.91 37.83 37.79 37.46 37.24 36.07 33.79 32.21 26.90 21.58 18.15
39.33 40.33 38.80 36.23 35.30 35.44 38.33 39.70 37.82 36.64 36.93 35.54 34.54 35.95 35.45 36.28 39.48 39.75 38.50 35.70 34.92 34.14 33.94 34.47 33.45 34.86 37.21 38.37 34.66 33.50 32.03 31.18 31.22 31.09 30.68 32.43 34.76 34.82 34.98 31.54 30.40 26.16 21.81
38.61 39.00 38.51 35.63 35.42 36.31 35.16 37.65 36.88 35.57 34.34 34.76 34.56 33.56 34.02 34.67 36.57 39.14 38.68 35.02 34.75 32.83 32.16 31.16 32.23 36.87 37.27 37.58 35.92 33.53 33.02 32.39 33.00 30.45 30.22 30.49 30.42 30.49 30.39 31.10 30.46 27.14 24.24
36.89 36.74 36.92 37.26 35.51 34.30 35.42 36.01 34.88 35.10 35.52 34.67 33.93 32.98 33.10 33.31 34.88 38.50 38.74 37.37 36.79 34.16 32.10 31.82 32.67 36.49 37.25 36.96 34.26 36.15 35.59 32.67 31.32 29.83 29.05 28.89 29.13 29.45 30.16 28.66 28.93 29.04 25.96
34.93 34.95 35.27 35.48 34.64 34.13 35.30 35.65 35.57 35.25 36.67 34.90 34.23 35.02 33.28 32.45 34.14 37.53 38.12 37.89 37.20 33.49 32.87 32.99 35.38 36.83 36.76 35.44 35.89 35.77 32.56 31.50 30.39 28.24 28.36 29.20 29.38 30.03 27.28 29.24 29.63 29.94 29.35
32.09 33.33 34.31 34.06 34.83 34.82 35.28 35.90 35.89 34.96 35.55 35.48 34.39 34.89 34.24 32.72 33.41 34.63 35.04 35.78 34.48 33.07 34.06 33.47 34.99 34.41 33.53 33.18 33.05 33.13 31.74 31.07 30.28 29.89 28.92 28.88 29.06 28.25 27.56 28.19 26.94 26.83 25.84
30.24 31.62 32.87 34.03 34.38 34.35 34.44 35.49 35.33 36.49 37.00 35.89 35.72 35.91 34.32 32.29 33.75 35.29 34.62 33.27 32.74 33.04 31.84 31.80 30.20 29.47 28.37 28.66 29.17 29.60 29.69 28.80 28.91 28.59 28.48 27.21 26.99 26.69 25.98 25.88 24.85 21.82 18.36
27.37 28.97 31.02 33.47 34.25 33.89 34.15 33.75 36.74 37.18 37.09 38.05 38.09 36.75 34.69 36.32 36.29 35.99 35.60 34.91 34.37 33.75 30.47 28.75 27.82 27.83 27.45 27.88 27.93 28.12 28.45 27.60 27.20 27.15 26.53 25.69 23.59 20.98 19.75 19.17 18.98 17.20 16.19
18.47 23.12 28.30 31.09 32.74 33.05 33.10 32.89 32.35 29.86 35.63 37.48 37.39 36.60 34.90 34.90 35.78 36.21 35.68 35.23 34.85 33.43 29.76 28.76 28.32 28.48 28.41 28.37 27.76 26.82 25.58 25.35 25.78 25.49 22.91 20.92 20.22 18.12 17.51 17.83 18.55 17.99 15.60
13.90 19.44 24.29 30.36 32.71 33.23 33.25 33.29 33.04 32.21 30.27 30.26 34.89 34.47 34.55 34.86 35.46 36.16 35.90 35.02 32.26 31.74 29.95 29.26 28.85 28.83 27.62 26.84 26.47 25.36 22.73 21.45 21.03 20.47 20.28 18.98 17.67 17.30 16.50 14.88 14.59 10.93 9.27
12.78 17.07 24.05 30.32 32.73 33.13 33.13 32.79 32.72 32.25 30.87 29.92 30.03 32.39 32.82 34.43 35.14 35.80 35.86 31.65 30.34 29.32 29.00 28.03 27.58 26.25 24.71 23.26 21.74 20.93 19.98 18.29 17.31 16.92 16.15 15.96 15.62 14.24 11.07 11.35 11.24 10.62 8.46
14.39 19.98 25.10 29.23 31.69 32.03 32.04 31.73 31.62 30.59 29.87 29.03 29.61 30.03 31.07 31.35 31.20 31.77 31.98 30.51 29.43 27.07 26.23 23.25 22.02 21.24 20.47 19.18 17.87 17.04 14.81 14.14 14.51 14.85 14.08 13.28 11.61 11.15 11.16 8.43 4.80 3.88 1.78
16.00 18.95 23.73 25.43 26.29 28.79 30.75 30.24 30.36 29.93 28.58 28.78 27.72 26.11 32.07 30.26 29.84 25.50 24.19 23.94 22.91 21.20 19.84 18.66 17.64 16.87 16.57 15.89 15.21 15.30 14.46 13.98 13.41 12.39 11.48 10.31 9.36 8.36 6.73 8.39 1.36 1.24 1.31
15.47 16.55 16.78 17.68 19.52 19.97 20.67 21.54 21.90 21.63 18.66 19.56 21.62 23.99 25.02 20.86 20.65 19.13 17.55 16.57 16.68 17.20 17.30 16.25 14.65 14.09 13.85 13.70 13.60 13.07 12.93 11.45 10.59 10.41 9.97 8.57 7.59 7.13 4.87 4.84 3.24 0.45 -2.48
13.43 13.56 13.57 13.67 14.44 15.14 15.66 16.41 16.96 17.07 15.60 14.67 14.73 14.65 14.95 14.56 14.60 13.72 11.97 11.39 11.32 11.08 12.89 13.43 11.94 10.60 11.07 11.54 12.67 12.83 11.40 10.63 10.18 9.77 8.22 6.32 6.06 5.69 4.26 1.91 3.86 -1.81 -3.21
10.00 10.35 10.82 11.87 12.50 12.11 11.83 11.65 12.04 12.10 11.95 11.62 11.56 11.33 11.18 11.12 10.79 9.89 9.55 9.40 9.11 8.23 9.09 10.13 10.21 9.14 8.04 7.86 7.70 7.04 8.65 8.31 8.27 7.50 7.05 6.13 5.06 4.96 4.01 3.77 2.66 1.22 0.25
7.32 7.48 7.82 7.92 8.05 8.85 10.13 10.28 10.42 10.42 10.15 10.05 9.70 9.42 9.42 9.59 9.20 8.70 8.39 8.56 8.35 7.79 7.35 7.73 8.15 8.77 7.58 6.65 5.74 5.34 5.91 8.09 4.58 4.37 3.34 3.57 3.20 3.27 3.60 2.31 0.12 0.31 -4.19
4.86 4.96 5.19 5.64 5.77 6.27 6.46 6.68 7.07 7.70 7.81 8.32 8.56 8.51 8.71 8.69 8.84 8.79 8.06 7.56 7.18 7.46 7.31 6.83 6.87 6.93 6.54 6.25 6.01 6.22 6.09 7.57 4.26 4.04 3.13 2.41 1.71 1.41 1.30 0.62 -0.27 -3.61 -3.84

GFSGL_sfc_wetblb_141.txt.gz
Wetbulb
47.49 49.40 51.98 54.17 56.44 59.11 60.70 61.61 61.71 61.67 61.43 60.46 60.54 60.50 60.29 59.95 59.68 59.15 59.42 59.57 58.69 58.42 58.62 58.14 57.80 58.30 57.85 57.18 56.41 56.04 55.10 54.84 52.75 49.17 45.20 44.28 42.47 41.87 40.34 39.65 38.63 38.45 37.32
46.96 47.79 49.58 51.95 53.72 55.19 57.86 60.05 61.12 61.15 60.61 60.64 61.17 60.50 60.04 59.98 59.85 59.09 58.68 58.99 58.64 57.83 58.05 57.41 57.29 57.06 56.63 56.97 55.77 54.61 54.56 53.70 53.03 50.21 43.14 41.35 41.73 40.72 39.92 37.62 37.36 37.50 35.17
45.72 46.94 48.53 50.43 52.41 53.97 55.45 57.12 57.74 59.09 60.04 59.83 60.48 60.41 60.23 59.76 59.36 59.18 59.06 58.67 58.52 58.34 57.70 56.76 56.90 56.23 54.87 55.04 53.76 53.49 51.42 46.20 47.28 43.55 41.02 39.11 38.34 37.81 36.06 35.30 35.08 32.92 35.29
44.58 45.03 46.54 48.07 50.12 52.65 54.87 55.85 56.87 57.70 58.30 58.62 59.34 60.34 60.17 59.91 59.53 59.22 58.81 58.55 57.76 57.31 57.06 56.52 56.21 55.51 54.53 52.84 50.73 49.94 46.74 44.73 41.18 37.45 35.16 35.68 35.47 34.35 33.85 33.24 32.29 31.52 32.55
44.94 43.81 44.95 46.36 48.09 49.89 51.46 53.23 53.97 54.06 56.80 57.79 58.24 58.64 59.50 58.87 58.56 57.98 57.17 57.20 56.36 55.93 54.90 54.90 54.49 50.75 45.71 49.18 48.98 46.90 44.34 40.15 35.90 35.69 34.11 33.64 33.38 32.19 32.72 32.29 31.84 31.50 29.50
43.14 42.63 43.07 42.91 43.48 44.89 46.89 48.27 47.27 48.33 52.05 53.85 53.34 54.36 54.78 55.41 50.36 48.66 53.32 55.35 54.34 54.28 53.12 49.04 46.74 39.05 41.89 43.02 43.53 43.92 45.05 42.41 37.66 35.85 34.05 33.93 33.75 33.73 32.53 32.28 31.59 29.60 25.42
40.16 40.36 39.53 38.52 38.04 39.36 38.94 40.83 42.93 45.01 46.94 48.56 50.46 50.19 51.27 53.71 46.20 46.59 45.58 55.00 52.94 51.80 49.18 45.02 41.07 40.42 39.28 41.27 41.15 41.41 40.96 42.10 40.88 39.79 35.08 35.23 34.17 34.00 33.05 31.00 30.15 27.35 30.82
37.49 37.79 37.77 37.81 37.37 37.76 36.35 38.13 40.97 43.46 43.84 45.73 46.15 47.25 48.26 46.05 43.37 43.50 41.61 49.44 47.79 46.76 45.60 44.25 43.17 39.09 38.56 38.44 38.11 36.29 36.05 36.87 38.30 38.35 38.26 36.13 35.68 33.98 33.62 32.17 30.01 28.05 28.74
35.08 35.66 36.19 36.61 36.26 36.36 36.30 36.71 37.76 40.43 41.86 42.92 40.41 41.99 41.37 42.59 41.22 41.96 41.81 40.60 40.20 40.16 41.74 41.82 41.88 38.74 37.78 39.00 36.08 34.53 33.53 33.39 37.24 37.91 37.30 37.04 36.49 35.49 33.51 30.69 25.52 21.58 18.47
33.25 33.84 34.68 35.28 35.17 35.29 35.86 36.33 37.05 37.80 38.79 40.49 39.27 39.15 38.40 40.69 39.87 40.77 41.44 38.96 37.31 36.88 36.29 36.59 34.99 38.37 37.62 38.70 36.10 34.54 32.97 31.99 32.49 32.13 33.79 36.00 35.86 34.90 35.04 30.54 26.38 21.87 18.68
32.03 31.41 30.63 32.79 34.09 34.75 35.15 35.22 35.28 36.20 36.75 37.75 38.12 37.68 36.53 36.59 37.61 40.27 40.76 38.42 39.69 36.32 35.90 34.55 34.68 37.67 38.39 38.66 37.60 34.86 34.92 32.84 33.71 31.49 31.03 31.42 31.93 31.27 30.59 28.96 27.77 25.26 22.13
25.17 24.79 26.78 30.44 32.95 33.78 33.95 34.24 35.16 35.04 35.16 35.54 35.56 36.79 35.55 34.91 35.73 39.37 40.15 40.37 38.96 37.19 35.34 34.45 34.54 37.60 38.21 38.39 35.86 36.81 36.19 33.56 31.68 30.30 29.53 29.10 29.30 29.19 29.88 27.91 28.29 28.89 26.78
20.22 21.05 25.68 29.73 31.48 33.08 33.62 33.63 33.65 34.96 34.84 35.34 35.40 35.57 37.50 34.02 34.83 37.93 39.09 38.89 37.90 35.52 34.43 34.09 35.40 37.26 37.88 37.27 36.19 36.75 33.35 31.88 30.66 29.03 28.45 28.54 29.10 29.52 29.37 28.75 28.85 29.09 28.62
16.12 21.25 25.01 25.11 28.16 31.42 33.19 34.01 33.74 34.05 35.20 34.78 35.17 35.19 36.27 36.60 34.91 35.25 35.96 37.09 35.49 34.24 34.09 34.05 35.39 35.92 36.21 34.22 34.00 34.47 32.06 31.77 30.73 29.78 28.81 28.44 29.26 28.83 28.27 28.75 27.21 27.23 22.79
14.62 15.15 18.74 23.77 26.54 28.07 30.45 33.19 33.76 35.00 35.44 35.17 35.48 36.16 35.34 35.76 35.18 36.73 36.20 34.97 34.78 33.85 33.00 33.38 33.36 32.58 31.76 32.14 32.67 31.64 31.16 30.70 29.64 29.24 28.00 28.03 27.83 27.52 26.76 26.58 25.48 18.74 16.96
10.41 13.17 13.08 14.63 17.61 22.04 26.80 30.64 35.41 36.09 36.53 37.19 37.73 37.51 36.75 37.55 37.79 36.91 37.04 36.91 35.92 35.20 32.70 31.94 30.84 30.61 30.02 29.97 29.56 28.95 29.18 29.33 29.52 29.25 28.51 27.70 26.37 25.70 24.53 20.68 19.44 16.82 16.53
7.97 10.03 11.19 12.53 14.44 17.98 22.94 28.19 30.36 33.99 36.20 36.37 37.06 37.42 37.74 37.85 37.17 36.67 36.64 36.38 36.05 35.24 33.02 31.19 30.33 29.56 29.21 29.07 29.02 28.52 27.78 28.34 28.39 27.76 27.12 26.00 24.45 23.60 21.84 20.05 20.85 20.66 14.80
9.31 10.21 10.88 12.24 14.14 17.82 23.23 28.48 31.45 31.67 31.62 32.63 34.73 36.16 37.05 37.39 36.67 36.65 36.55 35.81 32.78 33.71 32.84 30.53 29.43 29.06 28.67 28.49 28.42 27.73 26.12 25.65 26.17 25.11 23.50 22.90 22.76 22.18 20.59 20.08 19.81 16.41 11.99
9.26 11.04 13.04 14.23 15.81 19.64 24.48 27.92 30.90 31.96 32.22 32.64 33.43 33.15 34.53 36.51 36.30 36.63 36.49 33.10 31.78 31.08 31.52 30.33 30.17 29.60 29.08 28.83 27.90 25.88 25.31 24.43 23.47 22.38 21.14 20.33 19.67 19.13 17.94 17.26 16.25 14.78 12.50
11.67 13.47 14.84 16.16 17.55 21.21 24.57 25.94 30.23 31.12 31.54 31.93 31.57 30.93 32.46 32.03 32.33 32.90 33.37 32.85 32.27 31.65 30.76 30.32 29.73 29.22 28.03 26.09 24.68 23.48 21.57 20.13 19.75 19.34 18.01 17.15 16.39 17.11 15.57 13.93 13.42 11.43 10.26
10.43 11.85 13.40 14.18 14.60 16.51 17.68 19.18 20.42 24.61 28.60 29.42 28.25 27.60 32.85 31.23 31.46 31.83 31.96 31.52 31.37 29.82 28.10 25.76 24.67 23.73 23.00 21.95 20.72 19.73 19.13 17.90 17.53 16.42 15.38 14.58 13.63 12.87 13.00 12.88 11.02 9.84 8.06
9.10 9.57 10.51 11.45 12.86 12.82 13.11 13.45 14.39 15.66 14.88 15.04 15.68 16.89 22.91 18.92 18.18 17.09 16.14 16.12 17.64 19.24 20.69 20.25 19.14 19.29 19.18 18.96 18.35 17.26 16.05 14.90 14.62 14.33 13.47 12.26 11.29 10.80 10.36 9.76 9.40 7.47 5.38
6.98 6.97 7.75 8.62 9.23 10.39 10.79 11.47 11.24 11.29 11.34 11.59 11.76 11.90 12.12 12.03 11.66 11.49 11.25 11.66 12.54 13.60 14.89 15.23 14.44 13.36 14.40 15.37 16.64 16.82 15.29 14.26 14.43 13.96 11.84 10.22 9.33 8.76 8.24 7.59 6.59 4.41 3.63
4.84 4.84 5.17 5.76 6.32 6.70 7.33 7.65 8.41 9.02 9.12 9.36 9.39 9.56 9.57 9.49 8.90 8.76 9.15 9.49 9.70 10.06 11.26 11.49 11.41 10.83 10.67 10.73 11.35 12.02 12.77 12.67 12.49 11.97 10.97 9.23 7.98 7.76 6.97 6.12 5.56 4.27 3.74
2.20 2.04 2.63 2.85 3.30 3.74 4.43 4.97 5.34 6.08 6.63 7.18 7.36 7.91 8.59 8.83 8.26 7.88 8.14 8.59 8.48 8.13 7.97 8.72 9.55 9.23 8.90 8.29 8.02 8.05 10.40 10.89 8.62 8.95 8.82 8.50 7.44 6.84 6.47 6.05 4.79 3.62 2.42
-0.81 -0.81 -0.46 0.06 0.56 1.47 1.71 2.10 2.50 3.22 3.48 4.46 5.14 5.68 6.32 6.64 7.24 7.58 7.64 7.54 7.29 7.39 7.10 7.17 7.43 7.67 7.53 7.49 7.05 7.49 8.74 8.65 6.30 6.07 6.04 6.29 5.63 5.10 4.99 4.48 3.38 3.00 1.88

GFSGL_sfc_wetblb_144.txt.gz
Wetbulb
46.45 46.49 46.92 48.07 50.52 53.84 56.96 59.05 60.45 61.22 61.30 60.50 60.47 60.27 60.50 60.41 60.56 59.95 59.62 59.59 58.88 58.59 58.70 58.14 57.56 57.80 57.38 57.42 57.22 56.88 56.14 55.65 53.17 54.40 48.90 45.96 43.74 42.45 40.44 40.80 40.26 38.89 39.63
46.14 46.01 46.40 47.56 48.88 50.12 52.03 54.71 57.77 59.45 60.88 60.83 60.28 60.32 60.48 60.40 60.49 59.96 59.17 59.12 58.81 58.24 58.23 57.91 57.42 57.53 57.20 57.55 57.22 56.27 56.04 55.94 54.26 52.68 45.94 42.93 42.80 41.62 40.53 38.68 38.05 38.43 37.80
44.20 44.78 45.07 45.84 46.72 47.67 49.38 51.61 54.40 55.96 57.83 59.79 59.74 59.94 59.78 60.19 60.13 60.16 59.66 59.21 58.90 58.76 58.60 57.81 57.62 57.37 56.50 56.72 56.69 55.91 55.56 54.34 53.43 53.03 44.49 39.88 38.57 38.13 36.44 35.88 36.20 35.63 36.48
41.33 41.95 42.51 43.14 43.87 44.77 46.14 47.80 49.92 52.51 54.74 56.45 58.13 59.05 59.46 59.77 59.70 59.89 59.60 59.14 58.92 58.66 58.47 58.24 57.80 57.19 56.48 56.33 55.63 54.81 53.77 51.56 46.42 39.70 35.93 36.37 35.98 34.64 34.60 33.89 33.12 32.90 32.86
39.02 39.19 39.77 40.83 41.22 41.31 42.03 42.92 44.30 46.34 48.82 51.98 54.71 56.28 57.56 58.31 58.86 59.05 58.96 58.69 58.25 57.81 57.39 57.43 57.00 54.42 48.43 53.02 54.25 52.86 50.28 47.31 38.63 38.11 34.64 33.85 33.31 32.06 33.66 33.39 32.72 32.36 31.87
37.04 36.92 38.21 38.02 37.66 38.13 38.63 38.93 39.40 40.69 42.77 45.46 47.89 51.03 53.90 56.10 51.89 48.89 53.28 57.87 56.81 56.21 55.76 55.26 55.13 43.50 45.86 45.50 46.26 47.94 49.24 48.12 42.44 41.09 36.68 35.22 34.45 34.73 33.07 32.90 31.77 30.55 30.68
34.14 35.07 35.13 35.19 34.51 35.03 35.57 36.09 36.39 37.91 39.75 41.17 42.98 45.14 47.99 51.04 48.40 47.22 45.33 54.52 55.12 55.23 55.26 53.66 46.22 45.37 42.87 48.61 44.02 43.83 43.37 44.67 44.88 44.38 37.46 37.80 36.19 35.02 33.91 32.46 31.75 31.03 31.49
31.28 32.15 32.27 32.45 32.05 32.12 33.18 34.21 35.23 36.36 36.91 38.03 40.39 42.60 44.15 46.41 45.77 45.55 43.99 50.69 54.17 53.77 53.24 50.58 49.39 45.87 42.74 41.83 41.19 39.59 38.71 39.87 39.89 41.19 42.33 39.22 38.88 36.28 36.33 34.57 33.26 30.99 29.09
28.27 28.52 30.54 29.30 26.52 27.68 29.56 32.24 34.00 34.63 35.37 35.96 37.09 38.52 39.72 41.16 42.90 42.91 43.23 44.25 45.47 44.78 47.02 47.87 48.25 43.95 41.03 40.67 38.98 36.22 34.41 34.14 38.14 39.52 39.77 39.57 38.82 37.90 35.20 32.88 30.79 29.65 19.96
25.91 27.54 25.74 24.54 24.74 25.62 28.29 31.32 33.10 33.77 33.79 34.65 34.98 36.32 37.07 38.39 40.85 41.32 42.39 41.95 41.15 41.63 38.05 38.68 36.21 42.75 39.04 40.21 39.19 36.31 34.55 33.54 33.55 33.48 34.10 35.95 36.38 35.74 35.73 33.84 32.04 29.55 19.15
23.97 22.14 21.23 21.85 22.15 24.74 29.20 31.03 31.65 32.71 33.26 33.97 34.46 35.91 36.52 37.45 38.38 40.52 41.51 41.17 41.64 40.55 39.50 37.31 36.16 39.24 38.96 39.87 40.46 36.86 37.00 33.93 35.06 33.63 33.19 32.70 32.55 32.74 32.33 30.85 31.19 29.26 19.95
18.56 17.36 17.09 17.96 21.85 25.71 26.05 26.17 29.85 31.50 31.80 32.70 33.87 34.98 36.73 36.99 36.77 38.71 40.50 41.37 42.11 39.41 39.23 38.65 36.11 38.11 38.89 39.62 38.06 38.47 37.91 34.72 33.23 32.44 32.13 31.65 31.17 30.61 30.40 29.24 28.49 25.74 25.06
13.26 12.40 13.53 15.68 17.17 19.67 21.70 25.79 28.33 31.09 31.65 31.72 32.69 33.89 35.42 36.56 36.10 37.82 39.23 39.95 40.23 38.87 38.89 37.45 37.68 37.96 38.66 38.86 38.33 37.76 34.27 33.32 32.39 31.24 31.13 31.02 31.29 30.89 29.12 27.93 28.20 28.21 27.70
9.41 10.10 11.98 12.86 14.74 16.67 17.72 19.42 21.13 23.79 27.57 30.72 31.49 32.18 34.01 35.49 36.16 35.67 35.30 36.72 36.97 37.25 35.49 35.50 36.47 37.24 37.73 37.13 34.79 36.12 33.70 33.39 32.66 32.13 31.22 30.94 29.90 28.71 28.35 28.32 26.87 27.12 26.67
8.86 9.60 10.09 11.70 11.77 12.91 15.06 16.39 19.20 22.96 27.28 28.84 31.12 32.31 32.13 32.63 35.27 37.38 36.10 35.09 36.02 36.25 33.43 33.03 33.22 33.89 33.85 32.99 33.56 34.14 32.72 32.34 31.61 31.98 30.42 28.62 28.55 28.39 28.00 28.43 27.48 26.34 23.09
7.67 8.64 9.02 9.95 11.03 12.08 12.74 13.72 20.42 24.04 27.49 31.55 34.12 34.88 34.64 36.09 36.98 37.21 37.82 37.74 37.95 37.51 33.16 33.90 33.13 33.13 32.75 32.09 32.31 31.98 31.41 31.15 31.45 30.45 29.62 28.97 27.96 27.58 27.16 27.21 25.23 24.74 22.46
7.00 7.95 8.78 9.59 10.91 11.72 12.66 13.00 13.16 18.80 26.52 30.04 33.61 35.50 36.34 36.45 36.58 36.91 37.41 37.84 37.90 37.26 33.48 34.95 33.92 33.05 33.00 32.54 32.46 31.60 30.18 30.91 31.32 30.13 29.22 28.50 27.87 27.47 26.23 24.76 23.36 22.22 20.40
6.65 8.99 10.53 11.90 12.83 13.75 14.62 15.50 16.88 18.33 21.63 24.82 31.87 34.39 35.50 35.71 35.87 36.36 36.91 37.38 34.63 35.71 33.70 34.11 33.57 33.57 33.21 32.59 32.20 31.13 30.62 30.18 29.53 29.29 28.36 27.89 27.16 25.77 24.49 23.14 22.90 21.82 20.44
7.71 8.90 10.05 10.62 12.28 13.39 14.16 15.21 15.97 17.98 19.16 21.23 27.24 32.80 33.31 35.14 35.72 36.01 36.43 34.71 33.66 33.34 33.23 33.79 34.44 33.65 32.81 32.32 32.13 31.39 30.29 28.68 29.11 28.13 27.32 26.21 25.64 24.60 23.20 22.99 22.29 20.09 17.18
6.61 8.29 8.21 8.76 9.71 10.56 11.41 11.60 11.55 11.96 13.50 14.45 16.06 16.39 20.50 22.59 31.10 31.99 33.25 33.92 33.55 33.41 33.28 33.16 33.52 32.86 32.24 31.75 31.37 30.70 28.28 28.05 26.81 25.99 24.87 24.65 24.05 23.71 21.85 20.01 18.71 16.63 15.36
5.58 5.79 6.57 6.84 7.24 8.00 8.64 8.81 9.42 9.41 9.80 9.99 11.12 13.42 20.93 14.46 14.07 18.25 24.75 29.97 31.33 32.53 32.22 31.94 31.64 31.36 31.17 30.68 28.73 26.95 25.87 24.86 24.55 23.33 21.85 20.80 20.18 19.12 18.25 18.05 16.13 14.86 12.81
3.67 3.62 4.25 4.60 5.55 5.43 6.06 7.29 7.42 7.31 7.74 7.92 8.78 10.57 16.55 10.62 10.01 9.96 10.61 11.43 13.88 17.15 21.22 22.69 22.06 22.54 23.56 24.20 23.99 23.26 21.83 19.88 19.00 18.66 17.16 16.45 16.29 15.01 14.95 13.83 12.96 11.43 10.21
0.36 0.46 1.17 1.94 2.78 3.19 3.28 4.18 4.44 4.76 5.16 5.92 6.65 7.13 7.88 8.14 8.18 8.14 8.50 9.28 10.42 11.12 13.00 15.02 15.74 15.27 16.81 18.52 20.54 21.02 19.31 18.30 18.08 17.80 15.64 14.39 13.52 12.89 13.05 11.73 10.61 9.03 8.39
-2.91 -2.46 -2.45 -1.68 -1.28 -0.72 -0.07 0.75 1.95 2.47 2.90 3.34 3.96 4.63 5.20 5.98 6.42 6.88 7.59 8.46 8.73 9.00 9.66 10.45 11.18 11.58 12.50 12.56 13.51 14.55 15.13 15.20 16.07 16.01 15.45 13.88 12.13 11.22 10.84 9.83 8.90 8.04 7.34
-4.95 -5.15 -5.23 -5.10 -5.36 -4.79 -3.93 -2.87 -1.78 -1.01 0.08 0.87 1.42 2.19 3.13 3.90 4.22 4.45 5.68 6.50 7.30 7.45 7.48 7.88 8.34 8.72 8.67 8.65 9.06 11.09 13.98 12.83 12.94 13.32 12.93 12.43 10.83 10.01 9.49 8.87 7.61 6.85 5.82
-7.96 -7.86 -7.75 -7.48 -7.74 -7.67 -7.22 -6.97 -6.28 -5.33 -4.75 -3.58 -2.06 -1.08 0.45 1.04 1.79 2.23 2.62 3.43 4.30 5.47 6.34 6.97 6.83 6.75 6.99 7.23 7.91 9.61 10.65 10.92 8.87 10.26 10.78 10.45 9.35 8.66 8.27 7.41 6.47 5.91 4.77

GFSGL_sfc_wetblb_147.txt.gz
Wetbulb
42.73 43.87 44.49 44.89 45.78 47.21 48.38 49.94 51.55 54.12 57.23 59.58 59.78 59.67 59.73 59.96 60.28 59.96 59.63 59.36 58.38 58.27 58.56 57.97 57.64 57.89 57.28 57.25 56.93 56.22 55.23 54.86 52.52 54.58 52.68 50.21 45.23 42.26 41.60 41.67 41.04 39.67 41.02
40.65 41.61 42.47 43.00 43.31 43.53 44.08 45.52 47.62 49.41 52.63 55.04 57.23 59.28 59.79 60.08 60.25 60.08 59.62 59.50 58.83 58.40 58.35 58.12 57.75 57.81 57.10 57.24 56.81 56.07 55.80 56.08 54.66 53.06 52.98 44.32 44.29 42.55 41.05 39.44 39.10 38.96 39.12
38.62 39.02 39.49 39.95 40.10 40.52 41.29 42.61 43.46 44.42 46.20 49.31 52.39 54.81 57.03 58.95 59.41 59.82 59.86 59.55 59.38 59.00 58.96 58.44 58.07 57.81 56.67 56.82 56.61 56.25 56.19 55.69 55.74 54.36 53.37 41.06 39.20 38.91 37.49 36.96 36.94 36.78 37.49
36.62 36.80 36.92 37.54 37.73 37.99 39.11 39.62 40.06 40.83 41.88 43.51 45.60 48.22 51.99 55.39 57.60 58.94 59.27 59.40 59.27 59.19 58.89 58.84 58.70 58.02 57.27 56.95 56.16 55.91 55.64 54.76 54.04 53.10 46.79 38.20 37.20 35.41 35.24 33.99 33.65 33.63 33.71
34.30 34.03 34.81 35.61 35.59 35.59 35.42 35.41 36.54 37.86 39.17 40.74 42.19 44.04 46.27 49.33 52.72 55.45 57.28 58.00 58.26 58.37 58.39 58.42 58.40 55.86 49.38 54.41 56.28 55.56 55.02 53.74 51.47 47.94 36.55 34.59 35.28 33.79 35.71 35.00 35.30 32.81 32.58
31.99 31.59 33.19 32.50 32.83 32.36 30.54 30.42 32.11 34.11 36.38 37.66 38.26 39.93 41.61 44.10 44.37 45.16 47.46 54.41 56.53 56.47 56.65 57.36 57.05 46.21 47.53 46.33 47.35 49.41 53.40 53.68 49.25 46.41 43.46 40.08 37.27 35.52 34.92 34.79 32.73 31.55 30.98
28.68 29.91 28.69 30.21 29.22 26.86 26.63 27.26 28.43 30.58 33.38 34.29 35.84 37.18 38.40 40.98 42.11 42.87 41.98 47.24 51.76 54.61 55.79 55.78 54.82 52.97 46.11 53.65 47.35 45.99 46.66 47.15 50.76 48.04 45.76 42.61 39.49 37.21 36.47 33.88 33.53 32.71 32.74
26.62 25.23 26.36 24.92 23.05 23.95 24.38 25.26 26.37 28.90 31.40 32.43 33.50 34.92 35.56 37.12 39.67 40.66 40.35 43.05 46.36 50.44 53.27 53.69 53.82 50.09 48.07 48.96 50.47 47.78 47.37 46.06 46.73 46.59 48.47 45.15 44.44 40.54 39.58 37.82 36.02 32.64 30.15
21.14 20.88 21.42 21.04 20.31 21.00 20.88 22.02 24.83 29.27 30.49 30.99 32.25 33.20 33.67 34.73 37.59 38.47 39.25 39.58 41.42 43.47 47.67 51.00 52.05 51.32 46.57 43.11 47.67 42.76 40.77 38.70 39.86 41.60 42.05 41.87 41.23 40.31 37.75 34.84 32.64 32.99 27.35
18.02 18.10 18.13 18.48 18.04 17.64 19.35 22.22 25.76 26.21 26.01 27.89 30.52 32.67 33.39 34.07 36.50 37.41 38.06 37.26 37.01 39.31 41.54 41.75 38.66 45.05 43.59 42.13 43.51 40.53 38.68 38.06 35.01 34.13 34.61 38.00 39.02 37.93 37.35 38.32 35.10 34.00 26.91
16.78 16.05 15.52 15.85 15.58 16.97 17.85 18.46 19.90 21.79 25.28 27.82 29.73 31.84 33.05 34.23 35.60 37.82 38.72 36.94 36.34 36.51 38.41 40.88 41.29 40.31 41.29 41.52 41.87 39.79 40.14 36.70 36.53 35.20 34.11 33.37 33.61 34.04 34.53 33.63 35.33 36.44 29.98
13.54 12.46 12.08 12.56 14.13 16.14 14.66 16.71 18.31 18.34 18.58 21.03 24.00 26.69 30.38 33.22 35.06 37.18 38.72 38.97 39.00 36.53 36.37 38.66 40.88 39.64 40.12 41.17 40.39 42.17 40.93 36.47 34.70 34.06 33.42 32.53 32.43 32.45 32.72 31.78 30.76 29.67 29.66
9.12 8.68 10.16 11.81 13.06 13.72 13.11 13.56 13.75 15.56 16.36 18.02 20.74 23.28 26.76 31.16 33.18 35.52 37.33 38.16 38.24 36.86 37.31 38.35 39.60 39.38 39.80 40.05 40.20 39.98 35.74 34.94 34.28 33.53 33.45 33.33 33.63 33.55 31.26 29.01 28.66 28.63 28.36
7.35 9.02 10.47 10.80 10.82 12.19 13.56 14.25 13.29 13.55 14.71 16.24 17.94 20.48 23.33 26.14 28.95 32.02 33.46 35.04 35.11 35.80 36.31 36.98 37.70 38.31 38.70 39.18 35.75 37.82 35.96 35.43 35.24 35.27 34.77 34.27 32.92 30.10 29.28 28.88 27.01 26.75 26.60
7.79 8.48 9.00 9.90 10.27 11.25 13.08 13.88 15.51 17.24 18.38 18.22 19.79 21.71 22.70 24.55 28.14 32.62 33.86 33.83 34.86 35.75 34.93 35.40 34.46 34.39 35.00 35.17 34.63 35.55 34.98 34.11 33.88 34.74 33.96 32.02 30.46 29.88 29.24 28.85 28.04 26.68 26.10
5.72 6.68 7.73 9.63 10.77 11.79 12.15 13.09 18.76 20.78 22.88 24.51 26.52 26.34 26.76 29.80 32.23 33.17 34.71 36.05 36.69 37.02 34.84 33.91 33.74 34.04 33.95 34.43 33.87 33.84 33.80 33.03 33.79 33.77 33.19 31.44 29.75 29.09 27.97 27.63 27.51 26.61 25.13
3.52 6.43 7.80 8.97 9.28 9.36 10.19 10.64 9.84 14.24 19.17 20.36 21.95 22.76 24.07 23.51 26.16 27.23 29.48 36.04 36.64 36.55 33.29 33.72 33.83 33.72 34.33 34.50 34.41 34.19 33.64 33.13 33.80 33.22 32.48 30.66 30.37 29.83 28.04 26.81 26.31 25.90 24.31
3.20 5.94 6.67 6.77 7.30 8.36 8.64 9.08 9.57 8.77 8.12 9.91 15.55 18.34 18.73 21.47 22.07 24.32 26.55 33.17 33.00 33.87 33.18 33.22 33.60 33.91 34.35 34.28 34.38 33.88 34.18 32.94 32.22 32.24 31.64 30.96 30.42 29.20 27.56 26.44 25.74 25.08 23.32
3.26 4.24 5.15 5.20 6.34 6.97 7.22 7.36 7.53 7.47 7.28 7.69 8.96 12.17 14.16 17.81 17.89 18.21 18.69 14.01 15.85 26.26 31.63 33.03 33.99 34.01 34.00 34.27 34.26 33.85 33.74 32.56 32.00 31.56 31.35 30.69 29.98 29.16 27.63 26.70 25.44 24.87 22.87
-0.14 2.99 2.05 2.58 3.62 4.08 4.52 4.33 4.73 4.83 4.80 5.13 5.37 6.20 12.36 9.15 7.24 7.73 9.30 10.00 10.08 11.16 14.18 14.76 31.22 33.49 33.50 33.18 33.09 32.98 32.47 32.04 31.40 31.17 30.88 30.26 29.60 28.90 27.20 25.35 24.19 21.63 20.38
-1.83 -1.80 -1.06 -0.92 -0.33 0.69 1.29 1.46 2.62 2.80 2.46 2.88 3.58 5.88 15.29 6.42 5.98 6.35 6.81 7.64 8.23 8.66 9.39 11.62 15.90 20.02 32.02 32.26 32.04 31.73 31.61 31.21 30.36 30.32 29.25 27.72 26.82 25.40 24.86 23.63 21.34 20.92 17.31
-4.89 -5.04 -4.93 -5.01 -3.29 -2.93 -2.18 -0.97 -0.14 -0.09 -0.13 0.42 1.58 3.36 10.60 4.23 4.25 4.28 4.99 5.77 7.32 8.42 9.08 9.53 10.15 12.64 14.55 16.74 25.35 28.89 28.26 26.99 26.66 25.61 24.53 24.15 23.88 21.78 20.71 18.88 17.28 16.18 14.69
-7.79 -8.03 -7.86 -7.39 -6.42 -5.94 -5.38 -5.23 -4.57 -4.27 -3.95 -2.63 -1.74 -1.00 0.11 0.95 1.61 2.20 2.22 3.56 5.07 6.43 7.80 7.97 7.96 7.91 9.44 11.48 13.63 16.33 19.61 20.44 21.55 21.82 20.69 19.50 19.06 18.48 17.99 16.27 14.74 13.50 13.23
-14.43 -14.39 -11.15 -10.45 -9.73 -9.40 -9.36 -8.90 -7.63 -7.20 -7.02 -6.80 -6.47 -5.54 -4.48 -2.23 -1.77 -0.48 -0.97 0.40 2.33 3.79 5.39 6.50 6.57 6.30 7.01 8.07 9.67 10.60 13.75 15.90 17.77 18.93 19.17 17.76 15.98 16.06 15.40 14.05 13.59 12.99 11.22
-18.81 -17.89 -16.45 -14.40 -13.37 -12.47 -11.71 -11.16 -10.72 -10.29 -9.89 -9.37 -9.14 -8.47 -7.80 -6.49 -5.77 -4.67 -4.11 -3.36 -2.33 -0.40 1.21 3.83 4.93 5.39 5.80 6.48 8.69 10.29 11.18 10.79 12.36 14.22 15.00 14.88 13.77 13.66 13.17 12.41 11.05 10.39 9.57
-17.38 -19.93 -18.19 -15.18 -14.59 -14.62 -14.50 -14.13 -14.05 -13.24 -13.21 -12.19 -11.53 -11.52 -10.83 -9.79 -8.64 -8.43 -7.02 -7.42 -6.57 -4.52 -3.62 -0.16 1.70 2.77 4.58 5.83 7.63 10.26 12.06 15.04 10.58 11.34 11.94 12.01 11.07 10.34 10.78 9.69 9.38 8.61 8.06